• In Russia
  • List of Countries
  • For 7 days
  • Water Temperature
  • Satellite Maps
  • Weather Map
  • Weather Widgets
  • user-avatar
    Login

    Hourly Weather Wien

    Today, 23 February, Saturday

    Time Temperature Precipitation Wind Pressure Humidity
    00:00 -3°C° 0 mm 4 mps 760 mmHg 50%
    01:00 -5°C° 0 mm 5 mps 761 mmHg 48%
    02:00 -5°C° 0 mm 5 mps 761 mmHg 45%
    03:00 -6°C° 0 mm 5 mps 761 mmHg 43%
    04:00 -6°C° 0 mm 5 mps 761 mmHg 40%
    05:00 -5°C° 0 mm 4 mps 762 mmHg 40%
    06:00 -5°C° 0 mm 4 mps 762 mmHg 39%
    07:00 -7°C° 0 mm 4 mps 763 mmHg 39%
    08:00 -5°C° 0 mm 4 mps 763 mmHg 36%
    09:00 -4°C° 0 mm 4 mps 762 mmHg 34%
    10:00 -3°C° 0 mm 4 mps 762 mmHg 31%
    11:00 -3°C° 0 mm 4 mps 762 mmHg 29%
    12:00 -1°C° 0 mm 3 mps 762 mmHg 27%
    13:00 0°C° 0 mm 3 mps 762 mmHg 25%
    14:00 0°C° 0 mm 3 mps 762 mmHg 25%
    15:00 0°C° 0 mm 3 mps 761 mmHg 26%
    16:00 0°C° 0 mm 3 mps 760 mmHg 26%
    17:00 -1°C° 0 mm 3 mps 761 mmHg 29%
    18:00 -1°C° 0 mm 2 mps 761 mmHg 31%
    19:00 -2°C° 0 mm 2 mps 761 mmHg 34%
    20:00 -2°C° 0 mm 2 mps 761 mmHg 35%
    21:00 -2°C° 0 mm 2 mps 761 mmHg 35%
    22:00 -3°C° 0 mm 2 mps 761 mmHg 36%
    23:00 -1°C° 0 mm 1 mps 761 mmHg 36%

    Tomorrow, 24 February, Sunday

    Time Temperature Precipitation Wind Pressure Humidity
    00:00 -1°C° 0 mm 1 mps 761 mmHg 36%
    01:00 -1°C° 0 mm 1 mps 761 mmHg 36%
    02:00 -1°C° 0 mm 1 mps 761 mmHg 36%
    03:00 -1°C° 0 mm 1 mps 761 mmHg 37%
    04:00 -1°C° 0 mm 1 mps 760 mmHg 37%
    05:00 -1°C° 0 mm 1 mps 760 mmHg 36%
    06:00 -1°C° 0 mm 1 mps 760 mmHg 36%
    07:00 -1°C° 0 mm 1 mps 760 mmHg 35%
    08:00 0°C° 0 mm 1 mps 760 mmHg 32%
    09:00 +1°C° 0 mm 1 mps 760 mmHg 29%
    10:00 +2°C° 0 mm 1 mps 760 mmHg 25%
    11:00 +3°C° 0 mm 2 mps 760 mmHg 24%
    12:00 +4°C° 0 mm 2 mps 759 mmHg 23%
    13:00 +5°C° 0 mm 2 mps 759 mmHg 21%
    14:00 +5°C° 0 mm 2 mps 759 mmHg 25%
    15:00 +5°C° 0 mm 2 mps 759 mmHg 28%
    16:00 +5°C° 0 mm 2 mps 758 mmHg 31%
    17:00 +5°C° 0 mm 2 mps 758 mmHg 34%
    18:00 +4°C° 0 mm 2 mps 759 mmHg 37%
    19:00 +3°C° 0 mm 2 mps 759 mmHg 40%
    20:00 +3°C° 0 mm 2 mps 759 mmHg 44%
    21:00 +2°C° 0 mm 2 mps 759 mmHg 48%
    22:00 +1°C° 0 mm 3 mps 759 mmHg 52%
    23:00 +1°C° 0 mm 3 mps 759 mmHg 52%

    Day after tomorrow, 25 February, Monday

    Time Temperature Precipitation Wind Pressure Humidity
    00:00 +1°C° 0 mm 3 mps 759 mmHg 53%
    01:00 +1°C° 0 mm 3 mps 759 mmHg 53%
    02:00 +1°C° 0 mm 3 mps 759 mmHg 54%
    03:00 +1°C° 0 mm 3 mps 758 mmHg 55%
    04:00 +1°C° 0 mm 3 mps 758 mmHg 56%
    05:00 +1°C° 0 mm 3 mps 758 mmHg 57%
    06:00 +1°C° 0 mm 3 mps 758 mmHg 58%
    07:00 +1°C° 0 mm 3 mps 758 mmHg 59%
    08:00 +2°C° 0 mm 3 mps 758 mmHg 56%
    09:00 +4°C° 0 mm 3 mps 758 mmHg 52%
    10:00 +7°C° 0 mm 3 mps 758 mmHg 49%
    11:00 +8°C° 0 mm 3 mps 758 mmHg 47%
    12:00 +9°C° 0 mm 3 mps 758 mmHg 46%
    13:00 +11°C° 0 mm 3 mps 758 mmHg 45%
    14:00 +11°C° 0 mm 3 mps 758 mmHg 46%
    15:00 +11°C° 0 mm 3 mps 757 mmHg 48%
    16:00 +13°C° 0 mm 2 mps 757 mmHg 50%
    17:00 +10°C° 0 mm 3 mps 757 mmHg 56%
    18:00 +9°C° 0 mm 3 mps 757 mmHg 61%
    19:00 +8°C° 0 mm 3 mps 757 mmHg 67%
    20:00 +7°C° 0 mm 3 mps 757 mmHg 68%
    21:00 +6°C° 0 mm 4 mps 757 mmHg 69%
    22:00 +5°C° 0 mm 4 mps 757 mmHg 70%
    23:00 +5°C° 0 mm 4 mps 757 mmHg 70%

    26 February, Tuesday

    Time Temperature Precipitation Wind Pressure Humidity
    00:00 +4°C° 0 mm 4 mps 757 mmHg 70%
    01:00 +4°C° 0 mm 4 mps 756 mmHg 70%
    02:00 +4°C° 0 mm 4 mps 756 mmHg 70%
    03:00 +4°C° 0 mm 4 mps 756 mmHg 71%
    04:00 +4°C° 0 mm 4 mps 756 mmHg 71%
    05:00 +4°C° 0 mm 4 mps 756 mmHg 70%
    06:00 +4°C° 0 mm 4 mps 755 mmHg 70%
    07:00 +3°C° 0 mm 4 mps 755 mmHg 70%
    08:00 +5°C° 0 mm 5 mps 755 mmHg 64%
    09:00 +6°C° 0 mm 5 mps 755 mmHg 58%
    10:00 +8°C° 0 mm 6 mps 755 mmHg 53%
    11:00 +9°C° 0 mm 6 mps 754 mmHg 50%
    12:00 +11°C° 0 mm 7 mps 754 mmHg 48%
    13:00 +12°C° 0 mm 7 mps 753 mmHg 46%
    14:00 +12°C° 0 mm 7 mps 753 mmHg 46%
    15:00 +12°C° 0 mm 7 mps 753 mmHg 46%
    16:00 +14°C° 0 mm 7 mps 752 mmHg 47%
    17:00 +12°C° 0 mm 7 mps 753 mmHg 50%
    18:00 +11°C° 0 mm 6 mps 753 mmHg 53%
    19:00 +10°C° 0 mm 6 mps 753 mmHg 57%
    20:00 +9°C° 0 mm 6 mps 753 mmHg 57%
    21:00 +9°C° 0 mm 5 mps 753 mmHg 57%
    22:00 +8°C° 0 mm 5 mps 754 mmHg 57%
    23:00 +8°C° 0 mm 5 mps 754 mmHg 59%

    27 February, Wednesday

    Time Temperature Precipitation Wind Pressure Humidity
    00:00 +7°C° 0 mm 5 mps 754 mmHg 61%
    01:00 +6°C° 0 mm 4 mps 754 mmHg 63%
    02:00 +6°C° 0 mm 4 mps 754 mmHg 65%
    03:00 +6°C° 0 mm 4 mps 754 mmHg 67%
    04:00 +5°C° 0 mm 4 mps 754 mmHg 68%
    05:00 +5°C° 0 mm 4 mps 754 mmHg 69%
    06:00 +5°C° 0 mm 4 mps 754 mmHg 69%
    07:00 +4°C° 0 mm 4 mps 754 mmHg 70%
    08:00 +6°C° 0 mm 4 mps 754 mmHg 64%
    09:00 +7°C° 0 mm 4 mps 754 mmHg 59%
    10:00 +10°C° 0 mm 4 mps 754 mmHg 53%
    11:00 +11°C° 0 mm 4 mps 753 mmHg 50%
    12:00 +12°C° 0 mm 4 mps 753 mmHg 47%
    13:00 +14°C° 0 mm 4 mps 752 mmHg 43%
    14:00 +14°C° 0 mm 4 mps 752 mmHg 42%
    15:00 +14°C° 0 mm 3 mps 751 mmHg 42%
    16:00 +16°C° 0 mm 3 mps 751 mmHg 41%
    17:00 +13°C° 0 mm 3 mps 751 mmHg 46%
    18:00 +13°C° 0 mm 2 mps 751 mmHg 51%
    19:00 +10°C° 0 mm 2 mps 751 mmHg 56%
    20:00 +10°C° 0 mm 2 mps 750 mmHg 58%
    21:00 +9°C° 0 mm 2 mps 750 mmHg 60%
    22:00 +8°C° 0 mm 2 mps 750 mmHg 62%
    23:00 +8°C° 0 mm 2 mps 750 mmHg 61%

    28 February, Thursday

    Time Temperature Precipitation Wind Pressure Humidity
    00:00 +8°C° 0 mm 2 mps 749 mmHg 61%
    01:00 +8°C° 0 mm 2 mps 749 mmHg 61%
    02:00 +8°C° 0 mm 3 mps 749 mmHg 59%
    03:00 +7°C° 0 mm 4 mps 748 mmHg 58%
    04:00 +7°C° 0 mm 4 mps 748 mmHg 57%
    05:00 +7°C° 0 mm 5 mps 747 mmHg 58%
    06:00 +7°C° 0 mm 5 mps 747 mmHg 58%
    07:00 +7°C° 0 mm 6 mps 747 mmHg 58%
    08:00 +9°C° 0 mm 7 mps 747 mmHg 53%
    09:00 +10°C° 0 mm 8 mps 746 mmHg 47%
    10:00 +12°C° 0 mm 9 mps 746 mmHg 42%
    11:00 +13°C° 0 mm 9 mps 746 mmHg 41%
    12:00 +15°C° 0 mm 9 mps 745 mmHg 40%
    13:00 +16°C° 0 mm 9 mps 745 mmHg 39%
    14:00 +15°C° 0 mm 9 mps 744 mmHg 41%
    15:00 +15°C° 0 mm 8 mps 744 mmHg 43%
    16:00 +15°C° 0 mm 8 mps 744 mmHg 45%
    17:00 +14°C° 0 mm 7 mps 744 mmHg 51%
    18:00 +11°C° 0 mm 7 mps 745 mmHg 56%
    19:00 +10°C° 0 mm 7 mps 745 mmHg 61%
    20:00 +9°C° 0 mm 7 mps 745 mmHg 63%
    21:00 +9°C° 0 mm 7 mps 746 mmHg 65%
    22:00 +8°C° 0 mm 7 mps 746 mmHg 66%
    23:00 +8°C° 0 mm 7 mps 746 mmHg 66%
    Show more